Regional Weather Roundup
Issued by NWS

Home | Current Version | Previous Version | Text Only | Print | Product List | Glossary On
Versions: 1 2 3 4 5 6 7 8 9 10 11 12 13 14 15 16 17 18 19 20 21 22 23 24 25 26 27 28 29 30 31 32 33 34 35 36 37 38 39 40 41 42 43 44 45 46 47 48 49 50
000
ASUS44 KBMX 210110
RWRAL

ALABAMA REGIONAL WEATHER ROUNDUP
NATIONAL WEATHER SERVICE BIRMINGHAM AL
800 PM CDT MON OCT 20 2014

NOTE: "FAIR" INDICATES FEW OR NO CLOUDS BELOW 12,000 FEET
WITH NO SIGNIFICANT WEATHER AND/OR OBSTRUCTIONS TO VISIBILITY.

THE REMARK "TC" DENOTES TEMPERATURE IN DEGREES CELSIUS.

ALZ001>011-014-016>018-020-210200-
NORTH ALABAMA

CITY           SKY/WX    TMP DP  RH WIND       PRES   REMARKS
MUSCLE SHOALS  CLEAR     56  49  77 CALM      30.04R
HUNTSVILLE     CLEAR     60  51  72 CALM      30.02R
DECATUR        PTCLDY    56  51  84 CALM      30.03R
HALEYVILLE     FAIR      55  52  90 CALM      30.06R
GADSDEN        PTCLDY    57  50  77 CALM      30.02S
$$

ALZ012-013-022-023-030>036-040>044-210200-
WEST CENTRAL ALABAMA

CITY           SKY/WX    TMP DP  RH WIND       PRES   REMARKS
TUSCALOOSA     CLEAR     59  52  77 CALM      30.03R
$$

ALZ015-024>027-033>036-040>044-210200-
CENTRAL ALABAMA

CITY           SKY/WX    TMP DP  RH WIND       PRES   REMARKS
BIRMINGHAM     PTCLDY    61  51  70 CALM      30.05R
MONTGOMERY     CLEAR     63  49  60 W3        30.02R
SHELBY CO ARPT CLEAR     60  53  77 CALM      30.03R
MAXWELL AFB    CLEAR     60  54  82 CALM      30.01R
GREENVILLE     FAIR      58  54  86 CALM      30.01S
$$

ALZ019-021-028-029-037-038-045>048-210200-
EAST CENTRAL ALABAMA

CITY           SKY/WX    TMP DP  RH WIND       PRES   REMARKS
ANNISTON       MOCLDY    61  53  75 CALM      30.03R
ALEXANDER CITY CLEAR     59  55  89 CALM      30.03R
AUBURN         CLEAR     61  50  67 N5        30.05R
$$

ALZ051>064-210200-
SOUTHWEST ALABAMA

CITY           SKY/WX    TMP DP  RH WIND       PRES   REMARKS
MOBILE         PTCLDY    58  55  90 CALM      30.01R
BROOKLEY FIELD CLEAR     61  57  87 CALM      30.02R
EVERGREEN      PTCLDY    59  54  83 CALM      30.01S
$$

ALZ049-050-065>069-210200-
SOUTHEAST ALABAMA

CITY           SKY/WX    TMP DP  RH WIND       PRES   REMARKS
DOTHAN         CLEAR     63  56  78 NW6       30.03S
OZARK          CLEAR     66  54  65 NW6       30.00R
TROY           CLEAR     58  54  86 CALM      30.02R
EUFAULA        FAIR      58  56  93 CALM      29.99S
$$



USA.gov is the U.S. government's official web portal to all federal, state and local government web resources and services.